Eindhoven, Netherlands

7:21 AM CET on February 23, 2017 (GMT +0100)
Eindhoven Air Base

Weather History for EHEH - December, 2013

Change the Weather History Date:

Tuesday, December 17, 2013

  Actual Average Record
Temperature  
Mean Temperature 44 °F -  
Max Temperature 46 °F 41 °F 61 °F (2015)
Min Temperature 41 °F 31 °F 21 °F (1997)
Degree Days  
Heating Degree Days 22    
Moisture  
Dew Point 38 °F    
Average Humidity 74    
Maximum Humidity 87    
Minimum Humidity 54    
Precipitation  
Precipitation 0.00 in - - ()
Sea Level Pressure  
Sea Level Pressure 30.19 in    
Wind  
Wind Speed 8 mph ()    
Max Wind Speed 13 mph    
Max Gust Speed -    
Visibility 7.1 miles    
Events      
Averages and records for this station are not official NWS values.
T = Trace of Precipitation, MM = Missing Value Source: Averaged Metar Reports

Daily Weather History Graph

Daily Weather History Graph

Search for Another Location

Airport or City:

Trip Planner

Search our weather history database for the weather conditions in past years. The results will help you decide how hot, cold, wet, or windy it might be!

Date:

Astronomy

Dec. 17, 2013 Rise Set
Actual Time 8:38 AM CET 4:30 PM CET
Civil Twilight 7:58 AM CET 5:10 PM CET
Nautical Twilight 7:15 AM CET 5:53 PM CET
Astronomical Twilight 6:34 AM CET 6:34 PM CET
Moon 5:03 PM CET (12/17) 8:15 AM CET (12/17)
Length of Visible Light 9h 11m
Length of Day
7h 51m
Full, 100% of the Moon is Illuminated
Dec 17
Full
Dec 25
Last Quarter
Jan 1
New
Jan 8
First Quarter
Jan 16
Full

Hourly Weather History & Observations

Time (CET) Temp. Windchill Dew Point Humidity Pressure Visibility Wind Dir Wind Speed Gust Speed Precip Events Conditions
12:00 AM 50 °F - 39 °F 56% 30.20 in 28 mi SSW 13.4 mph - -   Overcast
12:19 AM 50.0 °F - 39.2 °F 66% 30.18 in 6.2 mi South 12.7 mph - N/A   Partly Cloudy
12:25 AM 50.0 °F - 39.2 °F 66% 30.18 in 6.2 mi South 11.5 mph - N/A   Unknown
12:55 AM 48.2 °F - 37.4 °F 66% 30.18 in 6.2 mi South 11.5 mph - N/A   Unknown
1:00 AM 48 °F - 38 °F 58% 30.19 in 28 mi South 11.2 mph - -   Partly Cloudy
1:25 AM 48.2 °F - 37.4 °F 66% 30.15 in 6.2 mi South 12.7 mph - N/A   Partly Cloudy
1:55 AM 46.4 °F 41.1 °F 37.4 °F 71% 30.15 in 6.2 mi South 11.5 mph - N/A   Scattered Clouds
2:00 AM 47 °F - 37 °F 57% 30.17 in 28 mi South 11.2 mph - -   Mostly Cloudy
2:25 AM 46.4 °F 41.1 °F 35.6 °F 66% 30.15 in 6.2 mi South 11.5 mph - N/A   Mostly Cloudy
2:55 AM 46.4 °F 40.7 °F 35.6 °F 66% 30.15 in 6.2 mi South 12.7 mph - N/A   Unknown
3:00 AM 47 °F - 36 °F 54% 30.17 in 28 mi South 13.4 mph - -   Scattered Clouds
3:25 AM 48.2 °F - 35.6 °F 62% 30.15 in 6.2 mi South 11.5 mph - N/A   Unknown
3:55 AM 46.4 °F 41.1 °F 35.6 °F 66% 30.15 in 6.2 mi South 11.5 mph - N/A   Overcast
4:00 AM 46 °F - 35 °F 54% 30.17 in 28 mi South 11.2 mph - -   Mostly Cloudy
4:25 AM 46.4 °F 40.7 °F 33.8 °F 62% 30.15 in 6.2 mi South 12.7 mph - N/A   Overcast
4:55 AM 44.6 °F 38.8 °F 33.8 °F 66% 30.15 in 6.2 mi South 11.5 mph - N/A   Partly Cloudy
5:00 AM 45 °F - 34 °F 54% 30.15 in 28 mi South 13.4 mph - -   Scattered Clouds
5:25 AM 44.6 °F 38.8 °F 33.8 °F 66% 30.12 in 6.2 mi South 11.5 mph - N/A   Partly Cloudy
5:55 AM 44.6 °F 39.7 °F 33.8 °F 66% 30.15 in 6.2 mi SSW 9.2 mph - N/A   Unknown
6:00 AM 42 °F - 34 °F 63% 30.17 in 28 mi SW 6.7 mph - -  
6:25 AM 42.8 °F 38.6 °F 33.8 °F 70% 30.15 in 6.2 mi SSW 6.9 mph - N/A   Unknown
6:51 AM 42.8 °F 38.6 °F 33.8 °F 70% 30.15 in 6.2 mi SSW 6.9 mph - N/A   Partly Cloudy
6:55 AM 42.8 °F 38.6 °F 33.8 °F 70% 30.15 in 6.2 mi SSW 6.9 mph - N/A   Partly Cloudy
7:00 AM 43 °F - 35 °F 63% 30.19 in 28 mi South 6.7 mph - -   Partly Cloudy
7:01 AM 42.8 °F 38.6 °F 35.6 °F 76% 30.15 in 6.2 mi South 6.9 mph - N/A   Mostly Cloudy
7:25 AM 44.6 °F 39.7 °F 35.6 °F 71% 30.15 in 6.2 mi South 9.2 mph - N/A   Overcast
7:42 AM 42.8 °F 37.5 °F 35.6 °F 76% 30.18 in 6.2 mi South 9.2 mph - N/A   Mostly Cloudy
7:49 AM 42.8 °F 37.5 °F 35.6 °F 76% 30.18 in 6.2 mi South 9.2 mph - N/A   Mostly Cloudy
7:55 AM 44.6 °F 40.2 °F 35.6 °F 71% 30.18 in 6.2 mi South 8.1 mph - N/A   Mostly Cloudy
8:00 AM 43 °F - 35 °F 63% 30.19 in 25 mi South 6.7 mph - -   Scattered Clouds
8:13 AM 42.8 °F 38.0 °F 35.6 °F 76% 30.18 in 6.2 mi SSW 8.1 mph - N/A   Scattered Clouds
8:17 AM 42.8 °F 38.0 °F 35.6 °F 76% 30.18 in 6.2 mi SSW 8.1 mph - N/A   Mostly Cloudy
8:19 AM 44.6 °F 40.2 °F 35.6 °F 71% 30.18 in 6.2 mi SSW 8.1 mph - N/A   Overcast
8:25 AM 44.6 °F 40.2 °F 35.6 °F 71% 30.18 in 6.2 mi SSW 8.1 mph - N/A   Overcast
8:55 AM 44.6 °F 41.4 °F 35.6 °F 71% 30.18 in 6.2 mi SSW 5.8 mph - N/A   Overcast
9:00 AM 44 °F - 36 °F 65% 30.22 in 25 mi SSW 6.7 mph - -   Overcast
9:03 AM 44.6 °F 41.4 °F 35.6 °F 71% 30.21 in 6.2 mi SSW 5.8 mph - N/A   Overcast
9:25 AM 44.6 °F 40.7 °F 37.4 °F 76% 30.21 in 6.2 mi SSW 6.9 mph - N/A   Overcast
9:55 AM 44.6 °F 40.7 °F 37.4 °F 76% 30.21 in 6.2 mi SSW 6.9 mph - N/A   Overcast
10:00 AM 45 °F - 37 °F 65% 30.24 in 22 mi SSW 4.5 mph - -   Overcast
10:25 AM 44.6 °F 42.2 °F 37.4 °F 76% 30.21 in 6.2 mi South 4.6 mph - N/A   Overcast
10:55 AM 44.6 °F 42.2 °F 39.2 °F 81% 30.24 in 6.2 mi SW 4.6 mph - N/A   Overcast
11:00 AM 45 °F - 38 °F 70% 30.26 in 22 mi SW 4.5 mph - -   Overcast
11:25 AM 44.6 °F 43.1 °F 37.4 °F 76% 30.24 in 6.2 mi SSW 3.5 mph - N/A   Overcast
11:55 AM 44.6 °F - 39.2 °F 81% 30.24 in 6.2 mi NNW 1.2 mph - N/A   Overcast
12:00 PM 45 °F - 39 °F 72% 30.26 in 19 mi North 2.2 mph - -   Overcast
12:25 PM 44.6 °F - 39.2 °F 81% 30.24 in 6.2 mi NE 1.2 mph - N/A   Overcast
12:55 PM 46.4 °F - 39.2 °F 76% 30.24 in 6.2 mi South 1.2 mph - N/A   Overcast
1:00 PM 46 °F - 39 °F 67% 30.25 in 19 mi Calm Calm - -   Partly Cloudy
1:03 PM 46.4 °F - 39.2 °F 76% 30.24 in 6.2 mi SSW 1.2 mph - N/A   Overcast
1:11 PM 46.4 °F - 39.2 °F 76% 30.24 in 6.2 mi WSW 1.2 mph - N/A   Overcast
1:25 PM 46.4 °F - 39.2 °F 76% 30.24 in 6.2 mi West 2.3 mph - N/A   Overcast
1:55 PM 44.6 °F 41.4 °F 41.0 °F 87% 30.24 in 6.2 mi NNE 5.8 mph - N/A   Overcast
2:00 PM 45 °F - 41 °F 80% 30.25 in 11 mi NNE 6.7 mph - -   Overcast
2:25 PM 44.6 °F 43.1 °F 41.0 °F 87% 30.24 in 6.2 mi NNE 3.5 mph - N/A   Overcast
2:55 PM 44.6 °F 42.2 °F 41.0 °F 87% 30.21 in 6.2 mi NE 4.6 mph - N/A   Overcast
2:56 PM 44.6 °F 43.1 °F 41.0 °F 87% 30.21 in 6.2 mi NE 3.5 mph - N/A   Overcast
3:00 PM 45 °F - 40 °F 78% 30.25 in 12 mi NE 4.5 mph - -   Overcast
3:25 PM 44.6 °F - 39.2 °F 81% 30.21 in 6.2 mi East 2.3 mph - N/A   Overcast
3:55 PM 44.6 °F 43.1 °F 39.2 °F 81% 30.21 in 6.2 mi ESE 3.5 mph - N/A   Overcast
4:00 PM 45 °F - 40 °F 76% 30.24 in 12 mi ESE 4.5 mph - -   Overcast
4:25 PM 44.6 °F - 41.0 °F 87% 30.21 in 6.2 mi East 2.3 mph - N/A   Overcast
4:55 PM 44.6 °F 43.1 °F 41.0 °F 87% 30.21 in 6.2 mi ENE 3.5 mph - N/A   Overcast
5:00 PM 45 °F - 40 °F 78% 30.24 in 11 mi NE 4.5 mph - -   Overcast
5:25 PM 44.6 °F - 41.0 °F 87% 30.21 in 6.2 mi East 2.3 mph - N/A   Overcast
5:55 PM 44.6 °F - 39.2 °F 81% 30.21 in 6.2 mi East 2.3 mph - N/A   Overcast
6:00 PM 45 °F - 40 °F 76% 30.23 in 11 mi East 2.2 mph - -   Overcast
6:25 PM 44.6 °F 43.1 °F 39.2 °F 81% 30.21 in 6.2 mi East 3.5 mph - N/A   Overcast
6:35 PM 44.6 °F 43.1 °F 39.2 °F 81% 30.21 in 6.2 mi ENE 3.5 mph - N/A   Scattered Clouds
6:55 PM 44.6 °F - 39.2 °F 81% 30.21 in 6.2 mi East 2.3 mph - N/A   Mostly Cloudy
7:00 PM 44 °F - 39 °F 76% 30.22 in 10 mi East 2.2 mph - -   Partly Cloudy
7:25 PM 42.8 °F 40.1 °F 39.2 °F 87% 30.21 in 6.2 mi East 4.6 mph - N/A   Mostly Cloudy
7:55 PM 42.8 °F 41.1 °F 39.2 °F 87% 30.21 in 6.2 mi East 3.5 mph - N/A   Overcast
8:00 PM 43 °F - 39 °F 79% 30.22 in 11 mi ESE 2.2 mph - -   Mostly Cloudy
8:25 PM 42.8 °F 41.1 °F 39.2 °F 87% 30.18 in 6.2 mi ESE 3.5 mph - N/A   Overcast
8:55 PM 42.8 °F 40.1 °F 39.2 °F 87% 30.18 in 6.2 mi ESE 4.6 mph - N/A   Overcast
9:00 PM 43 °F - 38 °F 78% 30.20 in 10 mi ESE 4.5 mph - -   Overcast
9:25 PM 42.8 °F 41.1 °F 39.2 °F 87% 30.18 in 6.2 mi ESE 3.5 mph - N/A   Overcast
9:55 PM 42.8 °F 41.1 °F 39.2 °F 87% 30.15 in 6.2 mi ESE 3.5 mph - N/A   Overcast
10:00 PM 42 °F - 38 °F 82% 30.19 in 9 mi ESE 4.5 mph - -   Overcast
10:25 PM 42.8 °F 40.1 °F 39.2 °F 87% 30.15 in 6.2 mi ESE 4.6 mph - N/A   Mostly Cloudy
10:55 PM 42.8 °F 39.3 °F 37.4 °F 81% 30.15 in 6.2 mi SE 5.8 mph - N/A   Overcast
11:00 PM 42 °F - 38 °F 80% 30.17 in 9 mi SSE 6.7 mph - -   Overcast
11:08 PM 42.8 °F 38.6 °F 37.4 °F 81% 30.15 in 6.2 mi SSE 6.9 mph - N/A   Overcast
11:25 PM 42.8 °F 39.3 °F 37.4 °F 81% 30.15 in 6.2 mi SE 5.8 mph - N/A   Overcast
11:55 PM 41.0 °F 38.0 °F 37.4 °F 87% 30.15 in 6.2 mi SE 4.6 mph - N/A   Mostly Cloudy